Вернуться в каталог

STARLINK-32468

АктивенСвязьVLEO
NORAD 62149·PAYLOAD·🇺🇸 United States

Запущен Nov 30, 2024 с Cape Canaveral Space Force Station

Loading…

Ближайшие Пролёты (ближайшие 24 часа)

TLE

СвежийSource: CelesTrak SupGP

Эпоха: Sep 15, 2026, 03:07 UTC

1 62149C 24224L   26258.13034722  .00009753  00000+0  35328-3 0  2586
2 62149  43.0020 168.2119 0001252 271.9899  62.7413 15.27571596    18

Отслеживайте STARLINK-32468 в реальном времени с AllMySat

Download on the App Store